| time (UTC) | temp F | wind direction | speed MPH | gust MPH | rain 1hr in | rain 24hr in | rain mn in | humidity % | barometer mb |
| 20260508045225 | 49 | 213 | 0.0 | 0.0 | 0.00 | 0.00 | 0.00 | 85 | 1014.7 |
| 20260508044723 | 49 | 213 | 0.0 | 0.0 | 0.00 | 0.00 | 0.00 | 85 | 1014.7 |
| 20260508044203 | 49 | 214 | 0.0 | 0.0 | 0.00 | 0.00 | 0.00 | 85 | 1014.7 |
| 20260508043705 | 49 | 214 | 0.0 | 0.0 | 0.00 | 0.00 | 0.00 | 84 | 1014.8 |
| 20260508043655 | 49 | 214 | 0.0 | 0.0 | 0.00 | 0.00 | 0.00 | 84 | 1014.8 |
| 20260508042632 | 49 | 214 | 0.0 | 0.0 | 0.00 | 0.00 | 0.00 | 84 | 1014.8 |
| 20260508042109 | 49 | 214 | 0.0 | 0.0 | 0.00 | 0.00 | 0.00 | 83 | 1014.7 |
| 20260508041605 | 49 | 214 | 0.0 | 0.0 | 0.00 | 0.00 | 0.00 | 83 | 1014.8 |
| 20260508041103 | 49 | 214 | 0.0 | 0.0 | 0.00 | 0.00 | 0.00 | 82 | 1014.8 |
| 20260508040535 | 50 | 214 | 0.0 | 0.0 | 0.00 | 0.00 | 0.00 | 82 | 1014.9 |
| 20260508040034 | 50 | 214 | 0.0 | 0.0 | 0.00 | 0.00 | 0.00 | 83 | 1015.0 |
| 20260508035507 | 50 | 214 | 0.0 | 0.0 | 0.00 | 0.00 | 0.00 | 81 | 1015.1 |
| 20260508035004 | 50 | 213 | 0.0 | 0.0 | 0.00 | 0.00 | 0.00 | 81 | 1015.0 |
| 20260508034438 | 51 | 214 | 0.0 | 0.0 | 0.00 | 0.00 | 0.00 | 81 | 1015.0 |
| 20260508033912 | 51 | 213 | 0.0 | 0.0 | 0.00 | 0.00 | 0.00 | 80 | 1015.1 |
| 20260508033349 | 51 | 213 | 0.0 | 0.0 | 0.00 | 0.00 | 0.00 | 79 | 1015.0 |
| 20260508032821 | 51 | 214 | 0.0 | 0.0 | 0.00 | 0.00 | 0.00 | 77 | 1014.9 |
| 20260508032318 | 51 | 214 | 0.0 | 0.0 | 0.00 | 0.00 | 0.00 | 77 | 1014.9 |
| 20260508031751 | 52 | 214 | 0.0 | 0.0 | 0.00 | 0.00 | 0.00 | 78 | 1014.9 |
| 20260508031249 | 51 | 214 | 0.0 | 0.0 | 0.00 | 0.00 | 0.00 | 76 | 1014.9 |
| 20260508030732 | 51 | 214 | 0.0 | 0.0 | 0.00 | 0.00 | 0.00 | 76 | 1014.9 |
| 20260508030234 | 52 | 214 | 0.0 | 0.0 | 0.00 | 0.00 | 0.00 | 76 | 1014.8 |
| 20260508025730 | 52 | 214 | 0.0 | 0.0 | 0.00 | 0.00 | 0.00 | 75 | 1014.8 |
| 20260508025233 | 52 | 214 | 0.0 | 0.0 | 0.00 | 0.00 | 0.00 | 74 | 1014.9 |
| 20260508024706 | 52 | 214 | 0.0 | 0.0 | 0.00 | 0.00 | 0.00 | 74 | 1014.7 |
| 20260508024202 | 53 | 213 | 0.0 | 0.0 | 0.00 | 0.00 | 0.00 | 73 | 1014.8 |
| 20260508024128 | 53 | 214 | 0.0 | 0.0 | 0.00 | 0.00 | 0.00 | 73 | 1014.8 |
| 20260508023625 | 53 | 214 | 0.0 | 0.0 | 0.00 | 0.00 | 0.00 | 73 | 1014.6 |
| 20260508022608 | 54 | 214 | 0.0 | 0.0 | 0.00 | 0.00 | 0.00 | 73 | 1014.7 |
| 20260508022056 | 54 | 214 | 0.0 | 0.0 | 0.00 | 0.00 | 0.00 | 71 | 1014.6 |
| 20260508021558 | 55 | 213 | 0.0 | 0.0 | 0.00 | 0.00 | 0.00 | 71 | 1014.7 |
| 20260508021532 | 55 | 214 | 0.0 | 0.0 | 0.00 | 0.00 | 0.00 | 72 | 1014.6 |
| 20260508020547 | 55 | 214 | 0.0 | 0.0 | 0.00 | 0.00 | 0.00 | 71 | 1014.6 |
| 20260508020529 | 55 | 213 | 0.0 | 0.0 | 0.00 | 0.00 | 0.00 | 70 | 1014.5 |
| 20260508015538 | 55 | 214 | 0.0 | 0.0 | 0.00 | 0.00 | 0.00 | 71 | 1014.3 |
| 20260508015030 | 56 | 213 | 0.0 | 0.0 | 0.00 | 0.00 | 0.00 | 68 | 1014.2 |
| 20260508014511 | 56 | 214 | 0.0 | 0.0 | 0.00 | 0.00 | 0.00 | 67 | 1014.2 |
| 20260508014008 | 57 | 214 | 0.0 | 0.0 | 0.00 | 0.00 | 0.00 | 65 | 1014.0 |
| 20260508013509 | 57 | 214 | 0.0 | 0.0 | 0.00 | 0.00 | 0.00 | 65 | 1013.8 |
| 20260508012959 | 58 | 214 | 0.0 | 0.0 | 0.00 | 0.00 | 0.00 | 64 | 1013.8 |
| 20260508012456 | 59 | 213 | 0.0 | 0.0 | 0.00 | 0.00 | 0.00 | 61 | 1013.7 |
| 20260508012436 | 60 | 214 | 0.0 | 0.0 | 0.00 | 0.00 | 0.00 | 61 | 1013.7 |
| 20260508011446 | 61 | 213 | 0.0 | 0.0 | 0.00 | 0.00 | 0.00 | 60 | 1013.6 |
| 20260508010918 | 62 | 213 | 0.0 | 0.0 | 0.00 | 0.00 | 0.00 | 59 | 1013.6 |
| 20260508010413 | 64 | 213 | 0.0 | 0.0 | 0.00 | 0.00 | 0.00 | 56 | 1013.5 |
| 20260508005910 | 65 | 213 | 0.0 | 0.0 | 0.00 | 0.00 | 0.00 | 54 | 1013.6 |
| 20260508005344 | 67 | 214 | 0.0 | 0.0 | 0.00 | 0.00 | 0.00 | 52 | 1013.6 |
| 20260508004818 | 69 | 213 | 0.0 | 1.0 | 0.00 | 0.00 | 0.00 | 50 | 1013.6 |
| 20260508004315 | 70 | 213 | 0.0 | 1.0 | 0.00 | 0.00 | 0.00 | 50 | 1013.6 |
| 20260508003748 | 71 | 213 | 0.0 | 1.0 | 0.00 | 0.00 | 0.00 | 50 | 1013.6 |
| 20260508003246 | 71 | 214 | 0.0 | 1.0 | 0.00 | 0.00 | 0.00 | 48 | 1013.6 |
| 20260508003239 | 72 | 214 | 0.0 | 1.0 | 0.00 | 0.00 | 0.00 | 48 | 1013.7 |
| 20260508002244 | 72 | 214 | 0.0 | 1.0 | 0.00 | 0.00 | 0.00 | 48 | 1013.8 |
| 20260508001743 | 72 | 213 | 0.0 | 1.0 | 0.00 | 0.00 | 0.00 | 48 | 1013.7 |
| 20260508001243 | 72 | 213 | 0.0 | 1.0 | 0.00 | 0.00 | 0.00 | 48 | 1013.8 |
| 20260508000741 | 72 | 213 | 0.0 | 1.0 | 0.00 | 0.00 | 0.00 | 48 | 1013.8 |
| 20260508000234 | 72 | 213 | 0.0 | 1.0 | 0.00 | 0.00 | 0.00 | 48 | 1013.8 |
| 20260507235731 | 72 | 214 | 0.0 | 1.0 | 0.00 | 0.00 | 0.00 | 50 | 1013.9 |
| 20260507235223 | 72 | 217 | 0.0 | 1.0 | 0.00 | 0.00 | 0.00 | 48 | 1013.8 |
| 20260507235204 | 72 | 217 | 0.0 | 1.0 | 0.00 | 0.00 | 0.00 | 47 | 1013.8 |
| 20260507234200 | 72 | 211 | 0.0 | 1.0 | 0.00 | 0.00 | 0.00 | 47 | 1013.8 |
| 20260507234136 | 73 | 218 | 0.0 | 1.0 | 0.00 | 0.00 | 0.00 | 48 | 1013.8 |
| 20260507233132 | 72 | 212 | 0.0 | 2.0 | 0.00 | 0.00 | 0.00 | 46 | 1013.8 |
| 20260507232629 | 72 | 212 | 0.0 | 2.0 | 0.00 | 0.00 | 0.00 | 48 | 1013.9 |
| 20260507232616 | 72 | 212 | 0.0 | 3.0 | 0.00 | 0.00 | 0.00 | 50 | 1013.8 |
| 20260507231628 | 72 | 199 | 0.0 | 3.0 | 0.00 | 0.00 | 0.00 | 51 | 1013.9 |
| 20260507231130 | 71 | 179 | 0.0 | 6.0 | 0.00 | 0.00 | 0.00 | 50 | 1013.8 |
| 20260507230603 | 71 | 207 | 1.0 | 6.0 | 0.00 | 0.00 | 0.00 | 50 | 1013.9 |
| 20260507230101 | 70 | 239 | 2.0 | 7.0 | 0.00 | 0.00 | 0.00 | 47 | 1013.9 |
| 20260507225558 | 70 | 250 | 3.0 | 7.0 | 0.00 | 0.00 | 0.00 | 48 | 1014.0 |
| 20260507225058 | 71 | 234 | 3.0 | 8.0 | 0.00 | 0.00 | 0.00 | 49 | 1014.1 |
| 20260507224530 | 72 | 261 | 2.0 | 8.0 | 0.00 | 0.00 | 0.00 | 46 | 1014.1 |
| 20260507224510 | 72 | 216 | 1.0 | 6.0 | 0.00 | 0.00 | 0.00 | 48 | 1014.2 |
| 20260507223501 | 72 | 214 | 1.0 | 6.0 | 0.00 | 0.00 | 0.00 | 47 | 1014.2 |
| 20260507223447 | 72 | 220 | 0.0 | 3.0 | 0.00 | 0.00 | 0.00 | 51 | 1014.2 |
| 20260507222456 | 71 | 202 | 1.0 | 4.0 | 0.00 | 0.00 | 0.00 | 49 | 1014.3 |
| 20260507222444 | 71 | 244 | 1.0 | 4.0 | 0.00 | 0.00 | 0.00 | 49 | 1014.3 |
| 20260507221425 | 70 | 196 | 1.0 | 5.0 | 0.00 | 0.00 | 0.00 | 50 | 1014.5 |
| 20260507220923 | 70 | 255 | 2.0 | 7.0 | 0.00 | 0.00 | 0.00 | 48 | 1014.5 |
| 20260507220836 | 71 | 267 | 1.0 | 7.0 | 0.00 | 0.00 | 0.00 | 45 | 1014.5 |
| 20260507215853 | 71 | 200 | 0.0 | 5.0 | 0.00 | 0.00 | 0.00 | 49 | 1014.5 |
| 20260507215335 | 71 | 205 | 1.0 | 5.0 | 0.00 | 0.00 | 0.00 | 50 | 1014.6 |
| 20260507214832 | 71 | 129 | 2.0 | 9.0 | 0.00 | 0.00 | 0.00 | 49 | 1014.5 |
| 20260507214307 | 70 | 213 | 2.0 | 9.0 | 0.00 | 0.00 | 0.00 | 51 | 1014.5 |
| 20260507213750 | 70 | 250 | 1.0 | 6.0 | 0.00 | 0.00 | 0.00 | 48 | 1014.6 |
| 20260507213247 | 70 | 124 | 1.0 | 3.0 | 0.00 | 0.00 | 0.00 | 49 | 1014.6 |
| 20260507212738 | 70 | 201 | 2.0 | 9.0 | 0.00 | 0.00 | 0.00 | 52 | 1014.7 |
| 20260507212237 | 70 | 218 | 2.0 | 9.0 | 0.00 | 0.00 | 0.00 | 48 | 1014.7 |
| 20260507211735 | 71 | 129 | 1.0 | 4.0 | 0.00 | 0.00 | 0.00 | 50 | 1014.8 |
| 20260507211706 | 70 | 217 | 1.0 | 4.0 | 0.00 | 0.00 | 0.00 | 50 | 1014.8 |
| 20260507210654 | 70 | 202 | 0.0 | 3.0 | 0.00 | 0.00 | 0.00 | 48 | 1014.9 |
| 20260507210155 | 69 | 178 | 2.0 | 9.0 | 0.00 | 0.00 | 0.00 | 51 | 1015.0 |
| 20260507205653 | 69 | 204 | 5.0 | 9.0 | 0.00 | 0.00 | 0.00 | 51 | 1015.1 |
| 20260507205625 | 69 | 260 | 5.0 | 10.0 | 0.00 | 0.00 | 0.00 | 50 | 1015.1 |
| 20260507204639 | 69 | 227 | 3.0 | 10.0 | 0.00 | 0.00 | 0.00 | 51 | 1015.2 |
| 20260507204141 | 70 | 270 | 2.0 | 9.0 | 0.00 | 0.00 | 0.00 | 48 | 1015.1 |
| 20260507203615 | 69 | 197 | 2.0 | 9.0 | 0.00 | 0.00 | 0.00 | 52 | 1015.3 |
| 20260507203524 | 69 | 244 | 4.0 | 9.0 | 0.00 | 0.00 | 0.00 | 48 | 1015.3 |
| 20260507202545 | 69 | 211 | 3.0 | 9.0 | 0.00 | 0.00 | 0.00 | 51 | 1015.4 |
| 20260507202018 | 69 | 255 | 3.0 | 12.0 | 0.00 | 0.00 | 0.00 | 49 | 1015.5 |
| 20260507201515 | 69 | 258 | 3.0 | 12.0 | 0.00 | 0.00 | 0.00 | 51 | 1015.5 |
| 20260507200948 | 69 | 226 | 4.0 | 11.0 | 0.00 | 0.00 | 0.00 | 51 | 1015.5 |
| 20260507200443 | 69 | 245 | 4.0 | 12.0 | 0.00 | 0.00 | 0.00 | 49 | 1015.6 |
| 20260507195939 | 70 | 284 | 2.0 | 10.0 | 0.00 | 0.00 | 0.00 | 50 | 1015.7 |
| 20260507195921 | 71 | 29 | 0.0 | 4.0 | 0.00 | 0.00 | 0.00 | 51 | 1015.8 |
| 20260507195359 | 70 | 109 | 1.0 | 7.0 | 0.00 | 0.00 | 0.00 | 53 | 1015.9 |
| 20260507194406 | 69 | 212 | 3.0 | 6.0 | 0.00 | 0.00 | 0.00 | 55 | 1016.0 |
| 20260507193847 | 69 | 269 | 2.0 | 9.0 | 0.00 | 0.00 | 0.00 | 51 | 1016.0 |
| 20260507193345 | 69 | 237 | 3.0 | 11.0 | 0.00 | 0.00 | 0.00 | 50 | 1016.2 |
| 20260507193304 | 68 | 153 | 4.0 | 11.0 | 0.00 | 0.00 | 0.00 | 54 | 1016.3 |
| 20260507192738 | 69 | 255 | 2.0 | 9.0 | 0.00 | 0.00 | 0.00 | 47 | 1016.3 |
| 20260507191727 | 69 | 238 | 2.0 | 6.0 | 0.00 | 0.00 | 0.00 | 50 | 1016.4 |
| 20260507191209 | 70 | 241 | 1.0 | 6.0 | 0.00 | 0.00 | 0.00 | 48 | 1016.5 |
| 20260507191153 | 69 | 277 | 1.0 | 5.0 | 0.00 | 0.00 | 0.00 | 52 | 1016.5 |
| 20260507190139 | 69 | 125 | 1.0 | 7.0 | 0.00 | 0.00 | 0.00 | 53 | 1016.4 |
| 20260507185635 | 68 | 259 | 2.0 | 7.0 | 0.00 | 0.00 | 0.00 | 52 | 1016.6 |
| 20260507185127 | 67 | 222 | 3.0 | 7.0 | 0.00 | 0.00 | 0.00 | 49 | 1016.6 |
| 20260507184623 | 68 | 237 | 2.0 | 7.0 | 0.00 | 0.00 | 0.00 | 53 | 1016.5 |
| 20260507184057 | 67 | 210 | 3.0 | 10.0 | 0.00 | 0.00 | 0.00 | 52 | 1016.7 |
| 20260507183530 | 67 | 210 | 2.0 | 10.0 | 0.00 | 0.00 | 0.00 | 49 | 1016.6 |
| 20260507183517 | 67 | 250 | 4.0 | 10.0 | 0.00 | 0.00 | 0.00 | 49 | 1016.7 |
| 20260507182459 | 68 | 261 | 4.0 | 10.0 | 0.00 | 0.00 | 0.00 | 45 | 1016.8 |
| 20260507182437 | 70 | 160 | 2.0 | 10.0 | 0.00 | 0.00 | 0.00 | 46 | 1016.8 |
| 20260507181430 | 71 | 293 | 0.0 | 6.0 | 0.00 | 0.00 | 0.00 | 50 | 1016.8 |
| 20260507181348 | 70 | 168 | 1.0 | 6.0 | 0.00 | 0.00 | 0.00 | 53 | 1017.0 |
| 20260507180841 | 69 | 207 | 2.0 | 8.0 | 0.00 | 0.00 | 0.00 | 53 | 1017.0 |
| 20260507175859 | 69 | 245 | 1.0 | 8.0 | 0.00 | 0.00 | 0.00 | 50 | 1017.1 |
| 20260507175349 | 69 | 105 | 2.0 | 8.0 | 0.00 | 0.00 | 0.00 | 51 | 1017.4 |
| 20260507174845 | 69 | 275 | 2.0 | 8.0 | 0.00 | 0.00 | 0.00 | 45 | 1017.4 |
| 20260507174829 | 70 | 251 | 1.0 | 5.0 | 0.00 | 0.00 | 0.00 | 53 | 1017.5 |
| 20260507173822 | 69 | 213 | 1.0 | 5.0 | 0.00 | 0.00 | 0.00 | 52 | 1017.6 |
| 20260507173319 | 68 | 141 | 0.0 | 3.0 | 0.00 | 0.00 | 0.00 | 51 | 1017.6 |
| 20260507172819 | 67 | 129 | 1.0 | 5.0 | 0.00 | 0.00 | 0.00 | 50 | 1017.7 |
| 20260507172320 | 67 | 257 | 1.0 | 5.0 | 0.00 | 0.00 | 0.00 | 51 | 1017.9 |
| 20260507171754 | 67 | 229 | 1.0 | 3.0 | 0.00 | 0.00 | 0.00 | 52 | 1018.0 |
| 20260507171226 | 66 | 57 | 2.0 | 6.0 | 0.00 | 0.00 | 0.00 | 46 | 1018.0 |
| 20260507170722 | 66 | 261 | 3.0 | 7.0 | 0.00 | 0.00 | 0.00 | 48 | 1018.0 |
| 20260507170155 | 67 | 250 | 2.0 | 6.0 | 0.00 | 0.00 | 0.00 | 45 | 1018.1 |
| 20260507165637 | 67 | 240 | 1.0 | 4.0 | 0.00 | 0.00 | 0.00 | 51 | 1018.1 |
| 20260507165139 | 68 | 81 | 1.0 | 5.0 | 0.00 | 0.00 | 0.00 | 47 | 1018.2 |
| 20260507164613 | 68 | 264 | 1.0 | 5.0 | 0.00 | 0.00 | 0.00 | 48 | 1018.2 |
| 20260507164108 | 69 | 196 | 1.0 | 4.0 | 0.00 | 0.00 | 0.00 | 48 | 1018.3 |
| 20260507163541 | 69 | 201 | 1.0 | 4.0 | 0.00 | 0.00 | 0.00 | 52 | 1018.2 |
| 20260507163523 | 68 | 252 | 0.0 | 3.0 | 0.00 | 0.00 | 0.00 | 49 | 1018.3 |
| 20260507162513 | 68 | 243 | 1.0 | 5.0 | 0.00 | 0.00 | 0.00 | 47 | 1018.4 |
| 20260507161947 | 68 | 259 | 1.0 | 5.0 | 0.00 | 0.00 | 0.00 | 46 | 1018.4 |
| 20260507161419 | 69 | 183 | 1.0 | 3.0 | 0.00 | 0.00 | 0.00 | 52 | 1018.6 |
| 20260507161357 | 69 | 134 | 1.0 | 5.0 | 0.00 | 0.00 | 0.00 | 53 | 1018.5 |
| 20260507160402 | 68 | 264 | 1.0 | 5.0 | 0.00 | 0.00 | 0.00 | 50 | 1018.5 |
| 20260507155858 | 68 | 143 | 1.0 | 3.0 | 0.00 | 0.00 | 0.00 | 57 | 1018.6 |
| 20260507155356 | 67 | 195 | 0.0 | 2.0 | 0.00 | 0.00 | 0.00 | 49 | 1018.6 |
| 20260507154852 | 67 | 157 | 1.0 | 5.0 | 0.00 | 0.00 | 0.00 | 52 | 1018.6 |
| 20260507153833 | 67 | 264 | 1.0 | 4.0 | 0.00 | 0.00 | 0.00 | 51 | 1018.7 |
| 20260507153812 | 67 | 208 | 2.0 | 4.0 | 0.00 | 0.00 | 0.00 | 52 | 1018.7 |
| 20260507152804 | 68 | 255 | 1.0 | 3.0 | 0.00 | 0.00 | 0.00 | 49 | 1018.8 |
| 20260507152300 | 69 | 205 | 0.0 | 1.0 | 0.00 | 0.00 | 0.00 | 51 | 1018.8 |
| 20260507151734 | 69 | 207 | 0.0 | 2.0 | 0.00 | 0.00 | 0.00 | 50 | 1018.7 |
| 20260507151208 | 68 | 144 | 0.0 | 2.0 | 0.00 | 0.00 | 0.00 | 52 | 1018.8 |
| 20260507150655 | 68 | 148 | 0.0 | 2.0 | 0.00 | 0.00 | 0.00 | 53 | 1018.7 |
| 20260507150128 | 67 | 149 | 0.0 | 2.0 | 0.00 | 0.00 | 0.00 | 56 | 1018.8 |
| 20260507150111 | 67 | 45 | 0.0 | 2.0 | 0.00 | 0.00 | 0.00 | 49 | 1018.7 |
| 20260507145100 | 67 | 250 | 0.0 | 2.0 | 0.00 | 0.00 | 0.00 | 56 | 1018.7 |
| 20260507144531 | 66 | 200 | 0.0 | 0.0 | 0.00 | 0.00 | 0.00 | 55 | 1018.7 |
| 20260507144029 | 66 | 231 | 0.0 | 0.0 | 0.00 | 0.00 | 0.00 | 52 | 1018.7 |
| 20260507143503 | 66 | 146 | 0.0 | 0.0 | 0.00 | 0.00 | 0.00 | 56 | 1018.7 |
| 20260507142938 | 65 | 208 | 0.0 | 0.0 | 0.00 | 0.00 | 0.00 | 59 | 1018.7 |
| 20260507142410 | 64 | 99 | 0.0 | 0.0 | 0.00 | 0.00 | 0.00 | 62 | 1018.6 |
| 20260507141844 | 64 | 179 | 0.0 | 0.0 | 0.00 | 0.00 | 0.00 | 62 | 1018.7 |
| 20260507141319 | 63 | 148 | 0.0 | 0.0 | 0.00 | 0.00 | 0.00 | 62 | 1018.7 |
| 20260507140753 | 62 | 142 | 0.0 | 0.0 | 0.00 | 0.00 | 0.00 | 64 | 1018.6 |
| 20260507140240 | 62 | 182 | 0.0 | 0.0 | 0.00 | 0.00 | 0.00 | 68 | 1018.7 |
| 20260507135741 | 60 | 202 | 0.0 | 0.0 | 0.00 | 0.00 | 0.00 | 68 | 1018.7 |
| 20260507135214 | 59 | 232 | 0.0 | 0.0 | 0.00 | 0.00 | 0.00 | 70 | 1018.7 |
| 20260507134658 | 58 | 214 | 0.0 | 0.0 | 0.00 | 0.00 | 0.00 | 73 | 1018.7 |
| 20260507134159 | 57 | 62 | 0.0 | 0.0 | 0.00 | 0.00 | 0.00 | 70 | 1018.8 |
| 20260507133653 | 57 | 93 | 0.0 | 0.0 | 0.00 | 0.00 | 0.00 | 68 | 1018.8 |
| 20260507133129 | 58 | 115 | 0.0 | 0.0 | 0.00 | 0.00 | 0.00 | 68 | 1018.8 |
| 20260507133051 | 58 | 110 | 0.0 | 0.0 | 0.00 | 0.00 | 0.00 | 71 | 1018.8 |
| 20260507132100 | 58 | 102 | 0.0 | 1.0 | 0.00 | 0.00 | 0.00 | 73 | 1018.9 |
| 20260507131556 | 57 | 107 | 0.0 | 1.0 | 0.00 | 0.00 | 0.00 | 72 | 1018.8 |
| 20260507131520 | 57 | 107 | 0.0 | 1.0 | 0.00 | 0.00 | 0.00 | 74 | 1018.8 |
| 20260507130527 | 56 | 107 | 0.0 | 0.0 | 0.00 | 0.00 | 0.00 | 77 | 1018.8 |
| 20260507130009 | 56 | 107 | 0.0 | 1.0 | 0.00 | 0.00 | 0.00 | 78 | 1018.8 |
| 20260507125507 | 55 | 107 | 0.0 | 1.0 | 0.00 | 0.00 | 0.00 | 79 | 1018.6 |
| 20260507124940 | 55 | 107 | 0.0 | 1.0 | 0.00 | 0.00 | 0.00 | 80 | 1018.7 |
| 20260507124926 | 55 | 107 | 0.0 | 0.0 | 0.00 | 0.00 | 0.00 | 83 | 1018.7 |
| 20260507123907 | 54 | 107 | 0.0 | 0.0 | 0.00 | 0.00 | 0.00 | 87 | 1018.6 |
| 20260507123339 | 53 | 107 | 0.0 | 0.0 | 0.00 | 0.00 | 0.00 | 90 | 1018.6 |
| 20260507123254 | 51 | 107 | 0.0 | 0.0 | 0.00 | 0.00 | 0.00 | 91 | 1018.4 |
| 20260507122246 | 50 | 106 | 0.0 | 0.0 | 0.00 | 0.00 | 0.00 | 93 | 1018.3 |
| 20260507121719 | 48 | 106 | 0.0 | 0.0 | 0.00 | 0.00 | 0.00 | 93 | 1018.3 |
| 20260507121657 | 47 | 106 | 0.0 | 0.0 | 0.00 | 0.00 | 0.00 | 93 | 1018.3 |
| 20260507121132 | 46 | 106 | 0.0 | 0.0 | 0.00 | 0.00 | 0.00 | 94 | 1018.3 |
| 20260507120148 | 44 | 106 | 0.0 | 0.0 | 0.00 | 0.00 | 0.00 | 94 | 1018.2 |
| 20260507115643 | 42 | 106 | 0.0 | 0.0 | 0.00 | 0.00 | 0.00 | 94 | 1018.2 |
| 20260507115141 | 41 | 106 | 0.0 | 0.0 | 0.00 | 0.00 | 0.00 | 94 | 1018.1 |
| 20260507114615 | 40 | 106 | 0.0 | 0.0 | 0.00 | 0.00 | 0.00 | 94 | 1018.1 |
| 20260507114049 | 39 | 106 | 0.0 | 0.0 | 0.00 | 0.00 | 0.00 | 93 | 1018.1 |
| 20260507113521 | 38 | 106 | 0.0 | 0.0 | 0.00 | 0.00 | 0.00 | 93 | 1018.2 |
| 20260507113019 | 38 | 106 | 0.0 | 0.0 | 0.00 | 0.00 | 0.00 | 93 | 1018.2 |
| 20260507112453 | 38 | 106 | 0.0 | 0.0 | 0.00 | 0.00 | 0.00 | 93 | 1018.3 |
| 20260507111925 | 38 | 106 | 0.0 | 0.0 | 0.00 | 0.00 | 0.00 | 93 | 1018.2 |
| 20260507111858 | 38 | 106 | 0.0 | 0.0 | 0.00 | 0.00 | 0.00 | 93 | 1018.1 |
| 20260507110858 | 38 | 106 | 0.0 | 0.0 | 0.00 | 0.00 | 0.00 | 93 | 1018.0 |
| 20260507110330 | 38 | 106 | 0.0 | 0.0 | 0.00 | 0.00 | 0.00 | 92 | 1017.9 |
| 20260507110246 | 38 | 106 | 0.0 | 0.0 | 0.00 | 0.00 | 0.00 | 92 | 1017.9 |
| 20260507105242 | 38 | 106 | 0.0 | 0.0 | 0.00 | 0.00 | 0.00 | 92 | 1017.9 |
| 20260507104719 | 38 | 105 | 0.0 | 0.0 | 0.00 | 0.00 | 0.00 | 92 | 1017.8 |
| 20260507104207 | 38 | 106 | 0.0 | 0.0 | 0.00 | 0.00 | 0.00 | 92 | 1017.9 |
| 20260507103706 | 38 | 106 | 0.0 | 0.0 | 0.00 | 0.00 | 0.00 | 92 | 1017.8 |
| 20260507103203 | 38 | 106 | 0.0 | 0.0 | 0.00 | 0.00 | 0.00 | 92 | 1017.9 |
| 20260507102638 | 38 | 106 | 0.0 | 0.0 | 0.00 | 0.00 | 0.00 | 91 | 1017.8 |
| 20260507102134 | 39 | 106 | 0.0 | 0.0 | 0.00 | 0.00 | 0.00 | 91 | 1017.8 |
| 20260507101635 | 39 | 106 | 0.0 | 0.0 | 0.00 | 0.00 | 0.00 | 91 | 1017.8 |
| 20260507101547 | 39 | 106 | 0.0 | 0.0 | 0.00 | 0.00 | 0.00 | 91 | 1017.9 |
| 20260507100606 | 39 | 106 | 0.0 | 0.0 | 0.00 | 0.00 | 0.00 | 90 | 1017.9 |
| 20260507100052 | 39 | 106 | 0.0 | 0.0 | 0.00 | 0.00 | 0.00 | 90 | 1018.0 |
| 20260507095555 | 39 | 106 | 0.0 | 0.0 | 0.00 | 0.00 | 0.00 | 90 | 1018.1 |
| 20260507095029 | 39 | 105 | 0.0 | 0.0 | 0.00 | 0.00 | 0.00 | 90 | 1018.0 |
| 20260507094501 | 39 | 106 | 0.0 | 0.0 | 0.00 | 0.00 | 0.00 | 90 | 1018.2 |
| 20260507093959 | 39 | 106 | 0.0 | 0.0 | 0.00 | 0.00 | 0.00 | 89 | 1018.1 |
| 20260507093439 | 40 | 106 | 0.0 | 0.0 | 0.00 | 0.00 | 0.00 | 89 | 1018.1 |
| 20260507092941 | 40 | 106 | 0.0 | 0.0 | 0.00 | 0.00 | 0.00 | 89 | 1018.3 |
| 20260507092428 | 40 | 106 | 0.0 | 0.0 | 0.00 | 0.00 | 0.00 | 90 | 1018.3 |
| 20260507091931 | 40 | 106 | 0.0 | 0.0 | 0.00 | 0.00 | 0.00 | 89 | 1018.0 |
| 20260507091848 | 40 | 106 | 0.0 | 0.0 | 0.00 | 0.00 | 0.00 | 88 | 1017.9 |
| 20260507090901 | 40 | 106 | 0.0 | 0.0 | 0.00 | 0.00 | 0.00 | 88 | 1018.0 |
| 20260507090335 | 40 | 106 | 0.0 | 0.0 | 0.00 | 0.00 | 0.00 | 88 | 1018.0 |
| 20260507085812 | 40 | 106 | 0.0 | 0.0 | 0.00 | 0.00 | 0.00 | 88 | 1018.0 |
| 20260507085308 | 40 | 106 | 0.0 | 0.0 | 0.00 | 0.00 | 0.00 | 88 | 1018.0 |
| 20260507085228 | 41 | 106 | 0.0 | 0.0 | 0.00 | 0.00 | 0.00 | 88 | 1018.1 |
| 20260507084221 | 41 | 106 | 0.0 | 0.0 | 0.00 | 0.00 | 0.00 | 88 | 1017.7 |
| 20260507083717 | 41 | 106 | 0.0 | 0.0 | 0.00 | 0.00 | 0.00 | 87 | 1017.8 |
| 20260507083214 | 41 | 106 | 0.0 | 0.0 | 0.00 | 0.00 | 0.00 | 87 | 1017.7 |
| 20260507082649 | 41 | 106 | 0.0 | 0.0 | 0.00 | 0.00 | 0.00 | 86 | 1017.6 |
| 20260507082147 | 41 | 106 | 0.0 | 0.0 | 0.00 | 0.00 | 0.00 | 86 | 1017.8 |
| 20260507081644 | 41 | 106 | 0.0 | 0.0 | 0.00 | 0.00 | 0.00 | 85 | 1017.8 |
| 20260507081559 | 42 | 106 | 0.0 | 0.0 | 0.00 | 0.00 | 0.00 | 86 | 1017.8 |
| 20260507080543 | 42 | 106 | 0.0 | 0.0 | 0.00 | 0.00 | 0.00 | 86 | 1017.9 |
| 20260507080041 | 42 | 106 | 0.0 | 0.0 | 0.00 | 0.00 | 0.00 | 85 | 1017.7 |
| 20260507075512 | 42 | 106 | 0.0 | 0.0 | 0.00 | 0.00 | 0.00 | 84 | 1017.6 |
| 20260507075009 | 42 | 106 | 0.0 | 0.0 | 0.00 | 0.00 | 0.00 | 84 | 1017.5 |
| 20260507074511 | 42 | 106 | 0.0 | 0.0 | 0.00 | 0.00 | 0.00 | 83 | 1017.5 |
| 20260507074010 | 42 | 105 | 0.0 | 0.0 | 0.00 | 0.00 | 0.00 | 83 | 1017.7 |
| 20260507073512 | 43 | 106 | 0.0 | 0.0 | 0.00 | 0.00 | 0.00 | 83 | 1017.8 |
| 20260507072946 | 43 | 106 | 0.0 | 0.0 | 0.00 | 0.00 | 0.00 | 83 | 1017.8 |
| 20260507072423 | 44 | 106 | 0.0 | 0.0 | 0.00 | 0.00 | 0.00 | 81 | 1017.7 |
| 20260507071906 | 44 | 106 | 0.0 | 0.0 | 0.00 | 0.00 | 0.00 | 81 | 1017.7 |
| 20260507071828 | 44 | 106 | 0.0 | 0.0 | 0.00 | 0.00 | 0.00 | 80 | 1017.7 |
| 20260507070841 | 44 | 106 | 0.0 | 0.0 | 0.00 | 0.00 | 0.00 | 80 | 1018.0 |
| 20260507070324 | 45 | 106 | 0.0 | 0.0 | 0.00 | 0.00 | 0.00 | 79 | 1017.9 |
| 20260507070300 | 45 | 106 | 0.0 | 0.0 | 0.00 | 0.00 | 0.00 | 78 | 1018.0 |
| 20260507065320 | 45 | 106 | 0.0 | 0.0 | 0.00 | 0.00 | 0.00 | 78 | 1018.1 |
| 20260507064821 | 46 | 106 | 0.0 | 0.0 | 0.00 | 0.00 | 0.00 | 77 | 1018.2 |
| 20260507064319 | 46 | 106 | 0.0 | 0.0 | 0.00 | 0.00 | 0.00 | 77 | 1018.2 |
| 20260507063816 | 46 | 106 | 0.0 | 0.0 | 0.00 | 0.00 | 0.00 | 77 | 1018.2 |
| 20260507063313 | 46 | 102 | 0.0 | 0.0 | 0.00 | 0.00 | 0.00 | 77 | 1018.0 |
| 20260507062745 | 46 | 102 | 0.0 | 0.0 | 0.00 | 0.00 | 0.00 | 77 | 1018.0 |
| 20260507062224 | 47 | 113 | 0.0 | 1.0 | 0.00 | 0.00 | 0.00 | 77 | 1017.9 |
| 20260507061710 | 47 | 90 | 0.0 | 1.0 | 0.00 | 0.00 | 0.00 | 77 | 1018.0 |
| 20260507061211 | 47 | 66 | 0.0 | 1.0 | 0.00 | 0.00 | 0.00 | 77 | 1017.9 |
| 20260507061152 | 47 | 169 | 0.0 | 1.0 | 0.00 | 0.00 | 0.00 | 77 | 1018.1 |
| 20260507060642 | 47 | 126 | 0.0 | 1.0 | 0.00 | 0.00 | 0.00 | 77 | 1018.0 |
| 20260507055643 | 47 | 63 | 0.0 | 1.0 | 0.00 | 0.00 | 0.00 | 77 | 1018.1 |
| 20260507055142 | 47 | 72 | 0.0 | 1.0 | 0.00 | 0.00 | 0.00 | 77 | 1018.0 |
| 20260507054643 | 47 | 82 | 0.0 | 1.0 | 0.00 | 0.00 | 0.00 | 77 | 1017.9 |
| 20260507054119 | 47 | 98 | 0.0 | 1.0 | 0.00 | 0.00 | 0.00 | 77 | 1018.0 |
| 20260507053616 | 47 | 66 | 0.0 | 0.0 | 0.00 | 0.00 | 0.00 | 78 | 1017.9 |
| 20260507053112 | 47 | 135 | 0.0 | 0.0 | 0.00 | 0.00 | 0.00 | 77 | 1017.9 |
| 20260507052608 | 47 | 79 | 0.0 | 0.0 | 0.00 | 0.00 | 0.00 | 77 | 1017.9 |
| 20260507052535 | 47 | 58 | 0.0 | 0.0 | 0.00 | 0.00 | 0.00 | 77 | 1017.9 |
| 20260507051539 | 47 | 91 | 0.0 | 0.0 | 0.00 | 0.00 | 0.00 | 77 | 1017.8 |
| 20260507051012 | 47 | 92 | 0.0 | 2.0 | 0.00 | 0.00 | 0.00 | 77 | 1017.8 |
| 20260507050509 | 47 | 92 | 0.0 | 2.0 | 0.00 | 0.00 | 0.00 | 77 | 1017.8 |